SCP
3 3 3 3 2 2 2 1 1 1 1 1 1 0 0 0 0 0 0 0 0 0 1 1 1 1 1 1 1 1 1 1 1 1 1 1 1 1 1 0 0 0 0
3 3 3 3 3 2 2 2 1 1 1 1 1 0 0 0 0 0 0 0 0 0 1 1 1 1 1 1 1 1 1 1 1 1 1 1 1 1 1 0 0 0 0
3 3 3 3 3 3 2 2 2 1 1 1 1 1 0 0 0 0 0 0 0 0 0 1 1 1 1 1 1 1 1 1 1 1 1 1 1 1 1 0 0 0 0
2 3 3 3 2 3 2 2 2 1 1 1 1 1 1 0 0 0 0 0 0 0 0 0 1 1 1 1 1 1 1 1 1 1 2 2 1 1 1 1 0 0 0
2 3 3 3 2 2 2 2 2 2 2 1 1 1 1 0 0 0 0 0 0 0 0 0 0 0 1 1 1 1 1 1 1 1 2 2 2 1 1 1 0 0 0
2 2 3 3 2 2 2 2 2 2 2 1 1 0 0 0 0 0 0 0 0 0 0 0 0 0 0 0 0 1 1 1 1 1 1 2 2 1 1 1 0 0 0
2 2 2 2 2 2 2 2 2 2 1 1 0 0 0 0 0 0 0 0 0 0 0 0 0 0 0 0 0 0 1 1 1 1 1 2 2 1 1 1 0 0 0
2 2 2 2 2 2 2 2 2 1 1 0 0 0 0 0 0 0 0 0 0 0 0 0 0 0 0 0 0 0 1 1 1 1 1 1 2 1 1 1 0 0 0
2 2 1 1 1 1 1 2 1 1 1 1 1 1 0 0 0 0 0 0 0 0 0 0 0 0 0 1 1 0 0 1 1 1 1 1 1 1 1 1 0 0 0
2 2 1 1 1 1 1 1 1 1 1 1 1 1 0 0 0 0 0 0 0 0 0 0 0 0 0 1 1 1 0 0 1 1 1 1 1 1 1 1 0 0 0
2 2 2 1 1 0 1 1 1 1 1 1 1 1 0 0 0 0 0 0 0 0 0 0 0 0 0 1 1 1 0 0 1 1 1 1 1 1 1 1 0 0 0
1 2 1 1 1 0 0 0 1 1 1 1 0 0 0 0 0 0 0 0 0 0 0 0 0 0 0 0 1 0 0 0 0 1 1 1 1 1 1 0 0 0 0
1 1 1 1 1 0 0 0 0 0 1 0 0 0 0 0 0 0 0 0 0 0 0 0 0 0 0 0 0 0 0 0 0 1 1 1 1 0 0 0 0 0 0
1 1 1 1 1 0 0 0 0 0 0 0 0 0 0 0 0 0 0 0 0 0 0 0 0 0 0 0 0 0 0 0 0 0 0 0 0 0 0 0 0 0 0
1 0 0 0 0 0 0 0 0 0 0 0 0 0 0 0 0 0 0 0 0 0 0 0 0 0 0 0 0 0 0 0 0 0 0 0 0 0 0 0 0 0 0
0 0 0 0 0 0 1 1 0 0 0 0 0 0 0 0 0 0 0 0 0 0 0 0 0 0 0 0 0 0 0 0 0 0 0 0 0 0 0 0 0 0 0
1 0 0 0 0 0 0 1 1 0 0 0 0 0 0 0 0 0 0 0 0 0 0 0 0 0 0 0 0 0 0 0 0 0 0 0 0 0 0 0 0 0 0
1 0 0 0 0 0 0 0 0 0 0 0 0 0 0 0 0 0 0 0 0 0 0 0 0 0 0 0 0 0 0 0 0 0 0 0 0 0 0 0 0 0 0
0 0 0 0 0 0 0 0 0 0 0 0 0 0 0 0 0 0 0 0 0 0 0 0 0 0 0 0 0 0 0 0 0 0 0 0 0 0 0 0 0 0 0
0 0 0 0 0 0 0 0 0 0 0 0 0 0 0 0 0 0 0 0 0 0 0 0 0 0 0 0 0 0 0 0 0 0 0 0 0 0 0 0 0 0 0
1 1 0 0 0 0 0 0 0 0 0 0 0 0 0 0 0 0 0 0 0 0 0 0 0 0 0 0 0 0 0 0 0 0 0 0 0 0 0 0 0 0 0
1 1 1 0 0 0 0 0 0 0 0 0 0 0 0 0 0 0 0 0 0 0 0 0 0 0 0 0 0 0 0 0 0 0 0 0 0 0 0 0 0 0 0
1 1 1 0 0 0 0 0 0 0 0 0 0 0 0 0 0 0 0 0 0 0 0 0 0 0 0 0 0 0 0 0 0 0 0 0 0 0 0 0 0 0 0
1 1 1 0 0 0 0 0 0 0 0 0 0 0 0 0 0 0 0 0 0 0 0 0 0 0 0 0 0 0 0 0 0 0 0 0 0 0 0 0 0 0 0
1 1 1 0 0 0 0 0 0 0 0 0 0 0 0 0 0 0 0 0 0 0 0 0 0 0 0 0 0 0 0 0 0 0 0 0 0 0 0 0 0 0 0
0 0 0 0 0 0 0 0 0 0 0 0 0 0 0 0 0 0 0 0 0 0 0 0 0 0 0 0 0 0 0 0 0 0 0 0 0 0 0 0 0 0 0
Wind_Speed
3 4 3 3 3 3 4 4 5 5 5 5 5 5 4 4 4 4 4 7 6 6 7 8 8 8 9 9 10 9 9 9 9 9 9 9 9 9 9 9 10 10 10
3 3 4 3 3 3 3 4 5 5 4 4 5 5 4 4 4 3 4 5 7 6 6 7 8 8 8 9 10 9 8 8 8 8 8 8 9 9 9 9 9 9 9
4 4 3 4 3 3 4 4 5 4 4 4 5 5 4 3 3 4 3 3 4 6 6 6 7 8 8 9 9 9 9 8 8 8 8 8 8 9 10 9 9 9 9
4 4 3 3 4 4 4 4 5 5 5 4 4 3 3 3 4 4 3 3 3 3 6 7 7 7 7 8 8 8 8 8 8 8 8 8 8 8 8 8 8 8 8
3 4 3 3 4 4 4 4 4 5 5 5 4 3 3 3 3 3 3 4 3 3 3 6 8 7 7 7 7 7 8 8 8 7 8 8 8 8 8 7 8 7 7
3 3 3 4 4 4 4 5 5 5 5 5 5 4 3 3 2 2 3 3 3 3 3 3 3 5 6 6 6 6 7 7 6 6 6 6 7 6 6 6 6 6 6
3 3 3 4 4 4 4 6 5 6 5 6 5 4 3 3 2 2 2 2 3 3 3 3 2 2 3 4 5 4 5 5 5 5 5 5 5 5 5 5 5 5 5
2 3 3 3 4 4 5 5 6 4 4 5 5 5 3 3 2 1 1 1 2 2 2 2 2 2 2 1 3 3 3 4 5 4 4 4 4 4 4 4 4 4 5
2 3 4 4 4 5 5 6 6 6 5 5 5 4 4 4 3 2 2 1 2 2 2 2 2 2 1 1 2 3 2 2 3 4 4 3 4 4 3 4 4 4 4
2 3 4 5 5 4 5 6 6 6 7 6 4 3 2 3 4 4 3 2 2 2 2 2 2 1 1 1 1 2 2 2 3 3 3 3 3 3 3 3 3 3 3
3 3 3 4 4 4 5 6 6 6 6 6 5 4 3 3 4 3 4 4 3 2 1 1 2 1 1 1 1 2 2 2 3 3 3 3 3 2 2 2 2 2 2
3 3 4 4 4 4 5 6 6 7 6 6 5 5 5 4 5 4 4 5 4 2 2 1 2 1 1 1 2 2 2 2 2 2 3 2 2 1 1 1 1 2 2
3 4 4 4 4 4 4 5 5 6 6 6 6 4 4 3 3 3 3 4 3 2 2 2 2 1 1 1 2 2 2 2 1 2 2 2 1 1 0 0 1 2 2
3 4 4 5 5 5 4 4 5 5 5 5 5 5 4 3 3 3 4 4 4 3 3 4 2 2 2 1 1 2 2 3 2 2 2 1 1 0 0 1 1 2 2
3 4 4 5 5 5 5 5 4 5 5 5 5 6 5 3 3 3 3 4 4 5 5 4 3 3 2 2 1 2 3 3 3 2 2 1 1 1 1 1 2 2 2
3 4 4 4 5 5 5 5 4 5 5 5 4 5 5 4 4 4 3 3 3 3 4 3 3 3 3 2 2 2 3 3 4 4 3 2 2 2 2 2 2 2 2
4 4 4 4 5 5 5 6 5 5 6 5 5 5 6 6 4 4 4 4 3 3 3 2 2 2 4 4 3 2 3 3 3 5 4 4 3 3 3 3 3 3 3
4 4 4 5 5 5 6 6 6 6 6 6 6 6 6 6 6 5 5 5 4 4 3 4 3 3 4 4 3 3 2 2 3 4 5 5 5 4 4 4 3 3 3
4 4 4 5 5 6 6 6 7 7 7 7 6 7 7 7 7 6 6 5 4 4 3 4 3 2 2 3 3 3 3 2 2 3 4 5 5 5 5 5 4 4 4
5 5 5 5 6 6 6 7 7 7 7 7 7 7 7 7 8 8 6 7 5 5 4 4 3 3 2 3 3 3 3 3 3 3 3 3 4 5 6 6 5 5 5
5 5 5 5 6 6 6 7 7 7 7 7 7 7 7 7 7 7 6 7 7 5 5 4 4 3 3 4 4 3 4 3 3 3 3 3 3 3 4 5 5 5 5
5 5 5 6 6 5 7 9 7 7 7 7 7 6 6 7 7 8 8 8 8 8 7 6 5 6 6 5 4 4 3 3 3 3 3 3 3 3 3 3 4 5 6
6 6 6 6 7 7 8 10 9 7 7 7 7 6 5 5 7 7 8 8 8 8 8 7 7 7 6 6 6 6 5 5 4 2 3 4 3 4 3 3 5 6 6
5 6 6 6 6 7 8 10 10 8 7 7 7 7 7 7 6 7 7 7 7 7 7 6 6 6 5 6 6 6 5 4 2 2 4 4 3 3 3 3 5 7 6
6 6 6 6 7 7 9 9 9 6 6 6 6 7 7 7 7 8 7 7 6 5 4 5 4 4 5 6 5 4 4 4 3 3 3 3 2 2 3 3 3 5 6
6 5 6 6 7 7 8 9 9 5 5 5 5 6 8 8 8 9 8 7 8 6 5 4 4 4 5 6 7 6 5 5 3 3 3 3 2 2 3 3 2 3 4
Wind_Direction
163 162 160 161 160 156 160 157 153 147 145 138 131 128 123 115 109 104 94 66 64 90 104 106 107 113 117 112 106 100 96 90 87 82 78 76 77 76 73 71 67 63 60
166 166 163 164 161 159 160 162 156 150 145 140 135 135 133 126 114 108 106 96 68 69 91 104 102 101 107 110 106 102 99 94 91 85 80 81 80 77 75 73 70 65 61
173 170 168 169 160 159 161 159 153 150 144 141 140 139 136 131 123 113 105 105 104 81 74 91 104 104 103 105 106 102 97 95 92 87 84 83 82 79 74 70 68 65 62
181 172 171 170 166 165 165 162 160 154 148 148 142 138 135 127 119 111 107 104 102 104 86 73 83 92 98 101 108 107 101 94 90 86 85 83 81 80 77 69 63 64 62
185 180 175 169 172 171 169 167 167 160 152 144 133 124 121 121 118 120 113 104 95 95 103 88 77 71 79 89 101 105 103 98 92 87 86 84 80 80 76 68 62 61 62
187 180 175 170 172 173 172 173 163 159 153 139 125 112 105 112 119 119 120 112 105 105 106 107 104 87 74 79 88 102 106 103 101 94 89 89 85 79 77 69 63 60 58
191 183 177 175 178 179 178 177 164 159 153 146 134 120 97 89 99 105 114 123 118 113 111 110 99 104 104 88 80 97 108 108 110 105 97 94 90 85 79 69 64 60 57
212 195 187 185 184 181 179 179 170 161 161 172 164 153 155 158 127 92 118 128 136 132 124 117 114 106 118 131 93 78 106 118 119 115 112 106 97 91 80 70 67 61 53
236 215 200 194 193 189 188 187 185 182 173 181 188 182 178 181 151 149 151 161 162 158 151 138 121 130 143 144 147 117 100 120 131 127 122 115 103 94 86 68 64 56 49
225 225 207 200 199 197 194 194 193 195 184 182 183 204 208 148 170 160 168 177 181 184 170 156 157 144 165 166 127 107 123 137 149 144 138 129 115 98 82 65 58 46 40
223 230 216 207 206 204 200 201 197 197 198 191 186 181 176 172 184 178 177 177 181 195 188 184 189 173 165 166 156 128 133 158 168 162 153 140 126 110 90 70 43 23 17
228 225 223 214 213 210 205 207 200 200 201 197 194 195 190 188 188 187 181 179 182 180 189 200 204 191 179 172 141 107 134 150 166 174 168 149 137 123 93 49 21 358 355
244 232 225 221 217 216 212 210 199 200 200 197 199 204 205 202 184 182 169 171 177 173 192 205 209 205 190 190 155 151 155 164 184 182 173 163 150 136 197 291 331 339 332
262 252 235 228 222 215 210 207 202 198 197 197 201 203 201 194 182 179 172 167 171 184 201 205 198 203 197 197 149 194 177 175 185 186 186 185 196 202 238 267 290 310 324
275 255 241 230 221 214 209 204 204 198 199 199 199 200 199 193 187 180 178 182 182 192 202 195 192 191 199 204 190 208 209 175 183 188 185 185 202 214 232 250 265 284 302
267 261 242 233 224 215 208 205 205 200 201 199 196 198 196 192 185 179 183 191 204 202 197 185 187 177 185 202 206 217 212 193 196 199 194 195 207 224 231 240 243 249 271
263 256 250 235 225 216 210 207 203 197 201 199 197 200 202 191 187 183 181 187 195 197 195 181 180 186 197 199 201 212 215 214 203 199 201 207 215 221 224 233 240 247 263
261 253 250 238 228 219 210 208 205 201 201 199 197 199 205 195 189 186 184 190 191 194 193 190 186 191 209 207 209 210 215 216 218 200 208 217 220 222 227 235 241 245 252
262 253 247 241 230 220 215 211 207 205 204 203 200 202 204 199 194 191 190 191 188 187 194 190 185 191 200 203 209 215 219 219 216 210 214 220 220 222 228 234 238 240 246
261 248 245 245 236 222 216 215 211 207 206 206 205 206 206 204 202 195 194 193 185 184 184 182 180 185 193 199 206 209 217 222 218 217 224 225 221 224 226 230 234 240 247
262 252 243 245 241 228 218 216 213 210 207 207 206 208 208 208 208 200 196 192 187 188 187 188 187 189 194 192 204 208 223 226 230 218 225 221 221 226 221 221 228 238 246
263 256 245 241 240 234 223 220 217 209 208 208 208 209 205 203 201 200 197 195 194 194 194 196 200 203 205 205 204 205 208 217 229 207 228 235 227 232 232 231 230 236 242
257 251 244 241 243 238 221 217 217 211 209 211 209 206 205 207 202 204 196 194 202 206 205 206 208 210 203 201 199 206 212 220 233 208 227 237 228 237 239 238 232 235 243
257 249 243 240 243 241 224 216 216 215 211 212 212 209 207 205 205 202 197 198 205 208 211 215 217 213 208 201 203 208 212 218 241 220 222 237 233 244 247 244 230 235 244
261 253 248 241 242 242 225 215 212 212 211 214 214 213 211 209 200 196 195 197 201 205 204 209 219 208 198 195 192 183 186 200 226 220 214 230 235 254 253 247 233 236 249
263 256 251 245 241 242 227 217 211 209 207 209 210 211 211 208 196 196 200 197 201 203 193 190 194 187 191 189 191 201 199 206 216 223 201 210 223 229 246 235 241 242 243